Time,TemperatureF,DewpointF,PressureIn,WindDirection,WindDirectionDegrees,WindSpeedMPH,WindSpeedGustMPH,Humidity,HourlyPrecipIn,Conditions,Clouds,dailyrainin,SolarRadiationWatts/m^2,SoftwareType,DateUTC
2013-01-18 00:02:00,37.0,22.0,30.43,NNW,341,3.0,7.0,55,-99.99,,,-99.99,0.000000,,2013-01-18 07:02:00,
2013-01-18 00:12:00,38.0,22.0,30.42,North,357,3.0,7.0,53,-99.99,,,-99.99,0.000000,,2013-01-18 07:12:00,
2013-01-18 00:22:00,38.0,22.0,30.42,North,357,3.0,7.0,53,-99.99,,,-99.99,0.000000,,2013-01-18 07:22:00,
2013-01-18 00:30:00,39.0,23.0,30.42,East,81,3.0,7.0,51,-99.99,,,-99.99,0.000000,,2013-01-18 07:30:00,
2013-01-18 00:32:00,37.0,22.0,30.42,North,352,5.0,7.0,55,-99.99,,,-99.99,0.000000,,2013-01-18 07:32:00,
2013-01-18 00:42:00,37.0,23.0,30.42,North,2,4.0,6.0,55,-99.99,,,-99.99,0.000000,,2013-01-18 07:42:00,
2013-01-18 00:52:00,37.0,23.0,30.42,North,2,4.0,6.0,55,-99.99,,,-99.99,0.000000,,2013-01-18 07:52:00,
2013-01-18 01:02:00,39.0,23.0,30.42,East,81,3.0,7.0,51,-99.99,,,-99.99,0.000000,,2013-01-18 08:02:00,
2013-01-18 01:12:00,39.0,23.0,30.42,East,81,3.0,7.0,51,-99.99,,,-99.99,0.000000,,2013-01-18 08:12:00,
2013-01-18 01:22:00,39.0,23.0,30.42,East,81,3.0,7.0,51,-99.99,,,-99.99,0.000000,,2013-01-18 08:22:00,
2013-01-18 02:33:00,36.0,23.0,30.41,NW,321,5.0,8.0,58,-99.99,,,-99.99,0.000000,,2013-01-18 09:33:00,
2013-01-18 02:42:00,36.0,23.0,30.41,NW,321,5.0,8.0,58,-99.99,,,-99.99,0.000000,,2013-01-18 09:42:00,
2013-01-18 04:32:00,33.0,23.0,30.38,NW,317,6.0,7.0,66,-99.99,,,-99.99,0.000000,,2013-01-18 11:32:00,
2013-01-18 04:42:00,33.0,23.0,30.37,NW,322,6.0,7.0,66,-99.99,,,-99.99,0.000000,,2013-01-18 11:42:00,
2013-01-18 04:53:00,33.0,23.0,30.37,NW,322,6.0,7.0,66,-99.99,,,-99.99,0.000000,,2013-01-18 11:53:00,
2013-01-18 05:02:00,34.0,23.0,30.37,NNW,327,6.0,7.0,65,-99.99,,,-99.99,0.000000,,2013-01-18 12:02:00,
2013-01-18 05:12:00,34.0,23.0,30.37,NNW,332,6.0,7.0,64,-99.99,,,-99.99,0.000000,,2013-01-18 12:12:00,
2013-01-18 05:22:00,34.0,23.0,30.37,NNW,332,6.0,7.0,64,-99.99,,,-99.99,0.000000,,2013-01-18 12:22:00,
2013-01-18 05:33:00,35.0,23.0,30.37,NNW,331,6.0,7.0,63,-99.99,,,-99.99,0.000000,,2013-01-18 12:33:00,
2013-01-18 05:43:00,33.0,23.0,30.37,NW,325,6.0,8.0,65,-99.99,,,-99.99,0.000000,,2013-01-18 12:43:00,
2013-01-18 05:53:00,33.0,23.0,30.37,NW,325,6.0,8.0,65,-99.99,,,-99.99,0.000000,,2013-01-18 12:53:00,
2013-01-18 06:03:00,33.0,23.0,30.37,NNW,328,6.0,7.0,67,-99.99,,,-99.99,0.000000,,2013-01-18 13:03:00,
2013-01-18 06:12:00,33.0,23.0,30.37,NW,321,6.0,7.0,66,-99.99,,,-99.99,0.000000,,2013-01-18 13:12:00,
2013-01-18 06:23:00,33.0,23.0,30.37,NW,321,6.0,7.0,66,-99.99,,,-99.99,0.000000,,2013-01-18 13:23:00,
2013-01-18 06:33:00,33.0,23.0,30.37,NW,316,6.0,7.0,67,-99.99,,,-99.99,0.000000,,2013-01-18 13:33:00,
2013-01-18 06:43:00,32.0,23.0,30.37,NW,316,6.0,7.0,69,-99.99,,,-99.99,0.000000,,2013-01-18 13:43:00,
2013-01-18 06:53:00,32.0,23.0,30.37,NW,316,6.0,7.0,69,-99.99,,,-99.99,0.000000,,2013-01-18 13:53:00,
2013-01-18 07:03:00,32.0,23.0,30.37,NW,316,6.0,7.0,69,-99.99,,,-99.99,0.000000,,2013-01-18 14:03:00,
2013-01-18 07:12:00,32.0,23.0,30.37,NW,307,9.0,10.0,69,-99.99,,,-99.99,0.000000,,2013-01-18 14:12:00,
2013-01-18 07:23:00,32.0,23.0,30.37,NW,307,9.0,10.0,69,-99.99,,,-99.99,0.000000,,2013-01-18 14:23:00,
2013-01-18 07:33:00,32.0,23.0,30.37,NW,305,9.0,10.0,69,-99.99,,,-99.99,1.390000,,2013-01-18 14:33:00,
2013-01-18 07:42:00,32.0,23.0,30.37,NW,306,8.0,9.0,70,-99.99,,,-99.99,14.640000,,2013-01-18 14:42:00,
2013-01-18 07:53:00,32.0,23.0,30.37,NW,306,8.0,9.0,70,-99.99,,,-99.99,14.640000,,2013-01-18 14:53:00,
2013-01-18 08:03:00,32.0,23.0,30.37,NW,306,8.0,9.0,69,-99.99,,,-99.99,64.150002,,2013-01-18 15:03:00,
2013-01-18 08:12:00,33.0,24.0,30.37,WNW,303,6.0,7.0,67,-99.99,,,-99.99,101.110001,,2013-01-18 15:12:00,
2013-01-18 08:23:00,33.0,24.0,30.37,WNW,303,6.0,7.0,67,-99.99,,,-99.99,101.110001,,2013-01-18 15:23:00,
2013-01-18 08:33:00,33.0,24.0,30.37,WNW,303,6.0,7.0,67,-99.99,,,-99.99,101.110001,,2013-01-18 15:33:00,
2013-01-18 08:43:00,33.0,24.0,30.37,WNW,303,6.0,7.0,67,-99.99,,,-99.99,101.110001,,2013-01-18 15:43:00,
2013-01-18 10:33:00,45.0,23.0,30.42,ESE,107,3.0,5.0,41,-99.99,,,-99.99,626.210022,,2013-01-18 17:33:00,
2013-01-18 10:43:00,44.0,22.0,30.42,ESE,107,3.0,7.0,41,-99.99,,,-99.99,696.640015,,2013-01-18 17:43:00,
2013-01-18 10:53:00,44.0,22.0,30.42,ESE,107,3.0,7.0,41,-99.99,,,-99.99,696.640015,,2013-01-18 17:53:00,
2013-01-18 11:03:00,44.0,22.0,30.42,ESE,107,3.0,7.0,41,-99.99,,,-99.99,696.640015,,2013-01-18 18:03:00,
2013-01-18 11:13:00,44.0,22.0,30.41,ESE,112,5.0,8.0,40,-99.99,,,-99.99,719.650024,,2013-01-18 18:13:00,
2013-01-18 11:23:00,44.0,22.0,30.41,ESE,112,5.0,8.0,40,-99.99,,,-99.99,719.650024,,2013-01-18 18:23:00,
2013-01-18 11:33:00,45.0,22.0,30.40,ESE,120,5.0,8.0,39,-99.99,,,-99.99,794.260010,,2013-01-18 18:33:00,
2013-01-18 11:43:00,45.0,21.0,30.39,ESE,107,5.0,9.0,38,-99.99,,,-99.99,822.849976,,2013-01-18 18:43:00,
2013-01-18 11:53:00,45.0,21.0,30.39,ESE,107,5.0,9.0,38,-99.99,,,-99.99,822.849976,,2013-01-18 18:53:00,
2013-01-18 12:03:00,45.0,21.0,30.38,SE,124,6.0,9.0,37,-99.99,,,-99.99,783.109985,,2013-01-18 19:03:00,
2013-01-18 12:12:00,46.0,21.0,30.37,ESE,117,5.0,8.0,36,-99.99,,,-99.99,848.650024,,2013-01-18 19:12:00,
2013-01-18 12:23:00,46.0,21.0,30.37,ESE,117,5.0,8.0,36,-99.99,,,-99.99,848.650024,,2013-01-18 19:23:00,
2013-01-18 12:33:00,46.0,21.0,30.36,East,96,4.0,9.0,35,-99.99,,,-99.99,908.630005,,2013-01-18 19:33:00,
2013-01-18 12:43:00,47.0,21.0,30.35,ESE,119,4.0,9.0,34,-99.99,,,-99.99,842.380005,,2013-01-18 19:43:00,
2013-01-18 12:53:00,47.0,21.0,30.35,ESE,119,4.0,9.0,34,-99.99,,,-99.99,842.380005,,2013-01-18 19:53:00,
2013-01-18 13:03:00,47.0,21.0,30.34,SE,145,5.0,9.0,34,-99.99,,,-99.99,866.789978,,2013-01-18 20:03:00,
2013-01-18 13:12:00,48.0,20.0,30.33,ESE,120,4.0,8.0,33,-99.99,,,-99.99,878.640015,,2013-01-18 20:12:00,
2013-01-18 13:23:00,48.0,20.0,30.33,ESE,120,4.0,8.0,33,-99.99,,,-99.99,878.640015,,2013-01-18 20:23:00,
2013-01-18 13:33:00,48.0,20.0,30.32,ESE,103,4.0,9.0,32,-99.99,,,-99.99,900.950012,,2013-01-18 20:33:00,
2013-01-18 13:42:00,49.0,20.0,30.31,ESE,104,4.0,9.0,32,-99.99,,,-99.99,836.799988,,2013-01-18 20:42:00,
2013-01-18 13:53:00,49.0,20.0,30.31,ESE,104,4.0,9.0,32,-99.99,,,-99.99,836.799988,,2013-01-18 20:53:00,
2013-01-18 14:03:00,49.0,20.0,30.30,ESE,115,5.0,9.0,32,-99.99,,,-99.99,866.789978,,2013-01-18 21:03:00,
2013-01-18 14:13:00,49.0,20.0,30.30,East,96,5.0,9.0,31,-99.99,,,-99.99,711.979980,,2013-01-18 21:13:00,
2013-01-18 14:23:00,49.0,20.0,30.30,East,96,5.0,9.0,31,-99.99,,,-99.99,711.979980,,2013-01-18 21:23:00,
2013-01-18 14:33:00,49.0,20.0,30.30,East,96,5.0,9.0,31,-99.99,,,-99.99,711.979980,,2013-01-18 21:33:00,
2013-01-18 14:42:00,49.0,20.0,30.30,East,96,5.0,9.0,31,-99.99,,,-99.99,711.979980,,2013-01-18 21:42:00,
2013-01-18 15:00:00,51.0,20.0,30.29,ESE,115,4.0,7.0,29,-99.99,,,-99.99,623.419983,,2013-01-18 22:00:00,
2013-01-18 15:33:00,51.0,20.0,30.29,ESE,115,4.0,7.0,29,-99.99,,,-99.99,623.419983,,2013-01-18 22:33:00,
2013-01-18 15:43:00,51.0,20.0,30.29,ESE,115,4.0,7.0,29,-99.99,,,-99.99,623.419983,,2013-01-18 22:43:00,
2013-01-18 15:53:00,51.0,20.0,30.29,ESE,115,4.0,7.0,29,-99.99,,,-99.99,623.419983,,2013-01-18 22:53:00,
2013-01-18 16:00:00,51.0,20.0,30.28,ESE,103,2.0,5.0,28,-99.99,,,-99.99,421.190002,,2013-01-18 23:00:00,
2013-01-18 16:33:00,51.0,20.0,30.28,ESE,103,2.0,5.0,28,-99.99,,,-99.99,421.190002,,2013-01-18 23:33:00,
2013-01-18 16:43:00,51.0,20.0,30.28,ESE,103,2.0,5.0,28,-99.99,,,-99.99,421.190002,,2013-01-18 23:43:00,
2013-01-18 16:53:00,51.0,20.0,30.28,ESE,103,2.0,5.0,28,-99.99,,,-99.99,421.190002,,2013-01-18 23:53:00,
2013-01-18 18:42:00,40.0,21.0,30.28,WNW,303,6.0,8.0,45,-99.99,,,-99.99,0.000000,,2013-01-19 01:42:00,
2013-01-18 18:53:00,40.0,21.0,30.28,WNW,303,6.0,8.0,45,-99.99,,,-99.99,0.000000,,2013-01-19 01:53:00,
2013-01-18 19:02:00,40.0,21.0,30.28,WNW,297,7.0,8.0,44,-99.99,,,-99.99,0.000000,,2013-01-19 02:02:00,
2013-01-18 19:12:00,39.0,21.0,30.28,WNW,302,7.0,9.0,47,-99.99,,,-99.99,0.000000,,2013-01-19 02:12:00,
2013-01-18 19:22:00,39.0,21.0,30.28,WNW,302,7.0,9.0,47,-99.99,,,-99.99,0.000000,,2013-01-19 02:22:00,
2013-01-18 19:33:00,41.0,21.0,30.28,NW,308,8.0,9.0,43,-99.99,,,-99.99,0.000000,,2013-01-19 02:33:00,
2013-01-18 19:43:00,40.0,21.0,30.28,WNW,300,7.0,9.0,45,-99.99,,,-99.99,0.000000,,2013-01-19 02:43:00,
2013-01-18 19:53:00,40.0,21.0,30.28,WNW,300,7.0,9.0,45,-99.99,,,-99.99,0.000000,,2013-01-19 02:53:00,
2013-01-18 20:03:00,39.0,21.0,30.28,NW,310,5.0,7.0,46,-99.99,,,-99.99,0.000000,,2013-01-19 03:03:00,
2013-01-18 20:12:00,40.0,20.0,30.28,NW,304,5.0,9.0,45,-99.99,,,-99.99,0.000000,,2013-01-19 03:12:00,
2013-01-18 20:22:00,40.0,20.0,30.28,NW,304,5.0,9.0,45,-99.99,,,-99.99,0.000000,,2013-01-19 03:22:00,
2013-01-18 20:33:00,40.0,20.0,30.28,NW,305,6.0,8.0,45,-99.99,,,-99.99,0.000000,,2013-01-19 03:33:00,
2013-01-18 20:43:00,40.0,20.0,30.28,NW,304,6.0,9.0,44,-99.99,,,-99.99,0.000000,,2013-01-19 03:43:00,
2013-01-18 20:53:00,40.0,20.0,30.28,NW,304,6.0,9.0,44,-99.99,,,-99.99,0.000000,,2013-01-19 03:53:00,
2013-01-18 21:02:00,39.0,20.0,30.28,WNW,301,7.0,9.0,45,-99.99,,,-99.99,0.000000,,2013-01-19 04:02:00,
2013-01-18 21:12:00,40.0,20.0,30.28,NW,304,6.0,8.0,44,-99.99,,,-99.99,0.000000,,2013-01-19 04:12:00,
2013-01-18 21:22:00,40.0,20.0,30.28,NW,304,6.0,8.0,44,-99.99,,,-99.99,0.000000,,2013-01-19 04:22:00,
2013-01-18 21:32:00,39.0,19.0,30.28,WNW,302,7.0,9.0,44,-99.99,,,-99.99,0.000000,,2013-01-19 04:32:00,
2013-01-18 21:42:00,38.0,19.0,30.28,WNW,303,7.0,8.0,45,-99.99,,,-99.99,0.000000,,2013-01-19 04:42:00,
2013-01-18 21:53:00,38.0,19.0,30.28,WNW,303,7.0,8.0,45,-99.99,,,-99.99,0.000000,,2013-01-19 04:53:00,
2013-01-18 22:00:00,38.0,20.0,30.28,WNW,300,7.0,9.0,47,-99.99,,,-99.99,0.000000,,2013-01-19 05:00:00,
2013-01-18 22:03:00,38.0,19.0,30.28,WNW,303,7.0,8.0,45,-99.99,,,-99.99,0.000000,,2013-01-19 05:03:00,
2013-01-18 22:12:00,37.0,20.0,30.28,WNW,301,8.0,9.0,48,-99.99,,,-99.99,0.000000,,2013-01-19 05:12:00,
2013-01-18 22:23:00,37.0,20.0,30.28,WNW,301,8.0,9.0,48,-99.99,,,-99.99,0.000000,,2013-01-19 05:23:00,
2013-01-18 22:33:00,38.0,20.0,30.28,WNW,300,7.0,9.0,47,-99.99,,,-99.99,0.000000,,2013-01-19 05:33:00,
2013-01-18 22:42:00,38.0,20.0,30.28,WNW,300,7.0,9.0,47,-99.99,,,-99.99,0.000000,,2013-01-19 05:42:00,
2013-01-18 22:53:00,38.0,20.0,30.28,WNW,300,7.0,9.0,47,-99.99,,,-99.99,0.000000,,2013-01-19 05:53:00,
2013-01-18 23:43:00,39.0,20.0,30.27,WNW,302,7.0,9.0,46,-99.99,,,-99.99,0.000000,,2013-01-19 06:43:00,
2013-01-18 23:53:00,39.0,20.0,30.27,WNW,302,7.0,9.0,46,-99.99,,,-99.99,0.000000,,2013-01-19 06:53:00,